Regional Weather Roundup
Issued by NWS

Home | Current Version | Previous Version | Graphics & Text | Print | Product List | Glossary On
Versions: 1 2 3 4 5 6 7 8 9 10 11 12 13 14 15 16 17 18 19 20 21 22 23 24 25 26 27 28 29 30 31 32 33 34 35 36 37 38 39 40 41 42 43 44 45 46 47 48 49 50
048
ASUS43 KIND 020709
RWRIN

WEATHER ROUNDUP FOR INDIANA
NATIONAL WEATHER SERVICE INDIANAPOLIS IN
300 AM EDT MON MAY 02 2016

NOTE: "FAIR" INDICATES FEW OR NO CLOUDS BELOW 12,000 FEET WITH NO
SIGNIFICANT WEATHER AND/OR OBSTRUCTIONS TO VISIBILITY.

* - STATION DOES NOT REPORT WEATHER SUCH AS PRECIPITATION OR FOG.

+ - STATION NOT QUALITY CONTROLLED BY THE NATIONAL WEATHER SERVICE.
    USE DATA WITH CAUTION...ESPECIALLY DEWPOINT AND RELATIVE
    HUMIDITY OBSERVATIONS.

INZ001>003-010>013-019-020-020800-
NORTHWEST INDIANA

CITY           SKY/WX    TMP DP  RH WIND       PRES   REMARKS
GARY /AIRPORT/ CLOUDY    46  46 100 N9        30.01S
KNOX *+        CLOUDY    50  46  87 NE6       29.95R
LA PORTE +     CLOUDY    49  49 100 N5        29.98R
MICHIGAN CITY+ CLOUDY    45  45 100 N7        29.99R
MONTICELLO +   CLOUDY    52  49  87 N3        29.93S
RENSSELAER +   CLOUDY    50  48  93 NW6       29.96S FOG
VALPARAISO     CLOUDY    49  47  93 N5        29.98R

$$

LMZ046-743>745-020800-
SOUTHERN LAKE MICHIGAN

STATION/POSITION TIME  TEMP    WIND        PRES    WAVE
                       AIR SEA DIR/SP/G            HT
                 (UTC) (F)     (DEG/KT/KT) (MB)    (FT)
BURNS HARBOR     0620   45      20/ 15/ 19 1015.9R
MICHIGAN CITY    0600   47      20/ 15/ 17   N/A

$$

INZ004-005-014>016-021>024-020800-
NORTH CENTRAL INDIANA

CITY           SKY/WX    TMP DP  RH WIND       PRES   REMARKS
GOSHEN         CLOUDY    48  45  89 NE12      29.94F
LOGANSPORT +   CLOUDY    52  52 100 E6        29.93R
PERU/GRISSOM   CLOUDY    52  52 100 E8        29.90F
ROCHESTER +    CLOUDY    54  54 100 NE7       29.92S
SOUTH BEND     CLOUDY    46  44  93 NE6       29.95F
WARSAW +       CLOUDY    50  50 100 E8        29.92F

$$

INZ006>009-017-018-025>027-020800-
NORTHEAST INDIANA

CITY           SKY/WX    TMP DP  RH WIND       PRES   REMARKS
ANGOLA *+      CLOUDY    46  36  66 NE7       29.94F
AUBURN +       CLOUDY    48  45  87 NE6       29.96F
FORT WAYNE     CLOUDY    51  48  89 NE10      29.94F
HUNTINGTON +   CLOUDY    50  49  95 NE7       29.93F

$$

INZ028-029-035-036-043>045-051>053-020800-
WEST CENTRAL INDIANA

CITY           SKY/WX    TMP DP  RH WIND       PRES   REMARKS
CRAWFORDSVL +  CLOUDY    52  52 100 W8        29.94S FOG
GREENCASTLE +  CLOUDY    55  55 100 NW6       29.94S
LAFAYETTE      CLOUDY    51  50  96 W9        29.93S FOG
TERRE HAUTE    MOCLDY    55  50  83 NW8       29.96S

$$

INZ030>032-037>040-046>048-054>057-064-065-020800-
CENTRAL INDIANA

CITY           SKY/WX    TMP DP  RH WIND       PRES   REMARKS
CP ATTERBURY + PTCLDY    59  55  88 NW3       29.91F
FISHERS *+     CLOUDY    55  55 100 NE3       29.90F
FRANKFORT +      N/A     56  56 100 CALM      29.93F FOG
GREENWOOD *+   PTCLDY    59  57  94 NW3       29.90F
INDIANAPOLIS   MOCLDY    57  54  89 W6        29.89F
-EAGLE CREEK   MOCLDY    58  55  90 W5        29.90F
KOKOMO *+      CLOUDY    54  48  82 E6        29.91F
MARION +       CLOUDY    51  51  99 E7        29.92F
SHELBYVILLE    MOCLDY    61  58  90 NW6       29.89F
ZIONSVILLE +   CLOUDY    56  55  96 CALM      29.91F

$$

INZ033-034-041-042-049-050-058-059-020800-
EAST CENTRAL INDIANA

CITY           SKY/WX    TMP DP  RH WIND       PRES   REMARKS
MUNCIE         CLOUDY    55  52  89 NE7       29.90F

$$

INZ060-061-067>069-081>083-085>088-020800-
SOUTHWEST INDIANA

CITY           SKY/WX    TMP DP  RH WIND       PRES   REMARKS
EVANSVILLE     MOCLDY    59  51  75 NW3       29.99R
HUNTINGBURG *+ CLOUDY    59  54  82 NW7       29.97S
WASHINGTON +   MOCLDY    59  56  91 NW8       29.96R

$$

INZ062-063-066-070>080-084-089>092-020800-
SOUTH CENTRAL AND SOUTHEAST INDIANA

CITY           SKY/WX    TMP DP  RH WIND       PRES   REMARKS
BEDFORD +      PTCLDY    57  57 100 W3        29.93R
BLOOMINGTON    MOCLDY    59  55  87 W6        29.92F
MADISON *+     CLEAR     61  57  88 W5        29.93S
NORTH VERNON + PTCLDY   N/A N/A N/A CALM      29.91F
SEYMOUR +      MOCLDY    63  59  88 W5        29.93

$$





USA.gov is the U.S. government's official web portal to all federal, state and local government web resources and services.